Regional Weather Roundup
Issued by NWS

Home | Current Version | Previous Version | Text Only | Print | Product List | Glossary On
Versions: 1 2 3 4 5 6 7 8 9 10 11 12 13 14 15 16 17 18 19 20 21 22 23 24 25 26 27 28 29 30 31 32 33 34 35 36 37 38 39 40 41 42 43 44 45 46 47 48 49 50
000
ASUS43 KLSX 272110
RWRMO

WEATHER SUMMARY FOR MISSOURI
NATIONAL WEATHER SERVICE SPRINGFIELD MO
300 PM CST MON FEB 27 2017

NOTE: "FAIR" INDICATES FEW OR NO CLOUDS BELOW 12,000 FEET WITH NO
       SIGNIFICANT WEATHER AND/OR OBSTRUCTIONS TO VISIBILITY.
       CURRENT SKY AND/OR WEATHER CONDITIONS ARE NOT AVAILABLE FOR
       CHILLICOTHE AND FARMINGTON.

MOZ001>031-035>038-043-044-053-054-272200-
...NORTHERN AND WESTERN MISSOURI...

CITY           SKY/WX    TMP DP  RH WIND       PRES   REMARKS
KANSAS CTY INT CLOUDY    60  32  34 S15G22    29.86F
KANSAS C DTWN  CLOUDY    62  32  32 SE14      29.86F
LEE`S SUMMIT   CLOUDY    61  34  36 SE14      29.87F
ST JOSEPH      CLOUDY    58  31  35 SE18G24   29.85F
CHILLICOTHE      N/A     61  28  28 SE12G23   29.92F
KIRKSVILLE     CLOUDY    60  25  26 S15       29.95F

$$
MOZ066>068-077>081-088>096-101>105-272200-
...SOUTHWEST MISSOURI...

CITY           SKY/WX    TMP DP  RH WIND       PRES   REMARKS
SPRINGFIELD    CLOUDY    63  44  50 SE22      29.92F
JOPLIN         MOSUNNY   67  50  54 S16G28    29.88F
BRANSON        PTSUNNY   66  46  48 SE16      29.96F

$$
MOZ032>034-039>042-045>050-055>058-069>072-272200-
...CENTRAL MISSOURI...

CITY           SKY/WX    TMP DP  RH WIND       PRES   REMARKS
COLUMBIA       SUNNY     64  34  32 SE15      29.95F
JEFFERSON CITY SUNNY     64  35  34 SE10      29.94F
ROLLA          SUNNY     65  33  30 MISG      29.95F
SEDALIA        SUNNY     65  34  31 SE14      29.91F
WHITEMAN AFB   PTSUNNY   64  33  30 SE15      29.88F
WARRENSBURG    CLOUDY    63  32  31 SE16      29.88F
OSAGE BEACH    SUNNY     66  33  29 SE9G16    29.94F

$$
MOZ051-052-059>065-272200-
...EAST CENTRAL MISSOURI...

CITY           SKY/WX    TMP DP  RH WIND       PRES   REMARKS
ST LOUIS INTL  MOSUNNY   64  38  38 SE12      30.02F
SPIRIT OF STL  MOSUNNY   65  37  35 S9        30.00F
ST CHARLES     SUNNY     63  36  36 SE10      30.01F

$$
MOZ072>076-082>087-097>100-106>115-272200-
...SOUTH CENTRAL AND SOUTHEAST MISSOURI...

CITY           SKY/WX    TMP DP  RH WIND       PRES   REMARKS
CAPE GIRARDEAU MOSUNNY   62  48  60 S12G18    30.07F
FARMINGTON     SUNNY     65  41  41 SE12      30.03F
POPLAR BLUFF   MOSUNNY   62  51  67 S10       30.05F
WEST PLAINS    MOSUNNY   64  42  44 S10       30.00F

$$



USA.gov is the U.S. government's official web portal to all federal, state and local government web resources and services.